Location: Fazenda Monte Alegre
(4.8500°S, 38.0333°W)
Time: 14:46:19
(UTC+00:00)

SL-24 R/B - Pass Details

Date: 24 September 2020
Orbit: 625 x 1075 km, 98.0° (Epoch: 19 October)

Event Time Altitude Azimuth Distance (km) Brightness Sun altitude
Rises 21:21:41 0° 171° (S) 2,986 7.5 -14.3°
Reaches altitude 10° 21:23:56 10° 173° (S) 2,040 6.7 -14.9°
Maximum altitude 21:28:18 75° 258° (WSW) 650 4.2 -16.0°
Drops below altitude 10° 21:32:34 10° 343° (NNW) 1,994 6.8 -17.0°
Sets 21:34:46 0° 345° (NNW) 2,914 7.7 -17.6°
